Weather History for Wichita Jabara, KS

Change the Weather History Date:

Sunday, March 17, 2013

  Actual Average (KICT) Record (KICT)
Temperature  
Mean Temperature 38 °F 47 °F  
Max Temperature 42 °F 58 °F 86 °F (1994)
Min Temperature 34 °F 35 °F 9 °F (1892)
Degree Days  
Heating Degree Days 27 18  
Month to date heating degree days 352  
Since 1 July heating degree days 3992  
Cooling Degree Days 0 0  
Month to date cooling degree days 0  
Year to date cooling degree days 0  
Moisture  
Dew Point 31 °F    
Average Humidity 80    
Maximum Humidity 100    
Minimum Humidity 70    
Precipitation  
Precipitation 0.01 in 0.09 in 1.86 in (2008)
Month to date precipitation 1.35  
Year to date precipitation 3.36  
Snow  
Snow 0.00 in 0.10 in 5.40 in (1988)
Month to date snowfall 1.4  
Since 1 July snowfall 13.8  
Snow Depth -    
Sea Level Pressure  
Sea Level Pressure 29.87 in    
Wind  
Wind Speed 14 mph (ENE)    
Max Wind Speed 21 mph    
Max Gust Speed 28 mph    
Visibility 9 miles    
Events Rain    
T = Trace of Precipitation, MM = Missing Value Source: NWS Daily Summary

Daily Weather History Graph

Daily Weather History Graph

Search for Another Location

Airport:

Trip Planner

Search our weather history database for the weather conditions in past years. The results will help you decide how hot, cold, wet, or windy it might be!

Date:

Astronomy

Mar. 17, 2013 Rise Set
Actual Time 7:36 AM CDT 7:38 PM CDT
Civil Twilight 7:10 AM CDT 8:04 PM CDT
Nautical Twilight 6:39 AM CDT 8:34 PM CDT
Astronomical Twilight 6:09 AM CDT 9:05 PM CDT
Moon 10:56 AM CDT (3/17) 12:41 AM CDT (3/17)
Length of Visible Light 12h 54m
Length of Day
12h 01m
Waxing Crescent, 31% of the Moon is Illuminated
Mar 17
Waxing Crescent
Mar 19
First Quarter
Mar 27
Full
Apr 2
Last Quarter
Apr 10
New

Hourly Weather History & Observations

Time (CDT) Temp. Windchill Dew Point Humidity Pressure Visibility Wind Dir Wind Speed Gust Speed Precip Events Conditions
12:49 AM 35.6 °F 24.8 °F 28.4 °F 75% 29.98 in 10.0 mi NE 19.6 mph 27.6 mph N/A   Overcast
12:54 AM 36.0 °F 26.0 °F 28.0 °F 73% 30.00 in 10.0 mi NE 17.3 mph 27.6 mph N/A   Overcast
1:13 AM 35.6 °F 24.8 °F 28.4 °F 75% 29.97 in 10.0 mi NE 19.6 mph 26.5 mph N/A   Overcast
1:54 AM 35.1 °F 23.8 °F 28.0 °F 76% 29.99 in 10.0 mi NE 20.7 mph 27.6 mph N/A   Overcast
2:54 AM 34.0 °F 24.2 °F 28.0 °F 79% 29.97 in 10.0 mi NE 15.0 mph 24.2 mph 0.00 in   Overcast
3:54 AM 34.0 °F 22.7 °F 27.0 °F 75% 29.94 in 10.0 mi NE 19.6 mph 24.2 mph N/A   Overcast
4:54 AM 35.1 °F 25.9 °F 27.0 °F 72% 29.94 in 10.0 mi ENE 13.8 mph 24.2 mph N/A   Overcast
5:54 AM 35.1 °F 26.9 °F 27.0 °F 72% 29.95 in 10.0 mi ENE 11.5 mph - N/A   Overcast
6:54 AM 35.1 °F 26.4 °F 28.0 °F 76% 29.94 in 10.0 mi ENE 12.7 mph - N/A   Overcast
7:54 AM 36.0 °F 28.5 °F 28.0 °F 73% 29.96 in 10.0 mi ENE 10.4 mph - N/A   Overcast
8:54 AM 36.0 °F 27.5 °F 28.9 °F 76% 29.96 in 10.0 mi ENE 12.7 mph 19.6 mph N/A   Overcast
9:13 AM 37.4 °F 28.9 °F 28.4 °F 70% 29.91 in 10.0 mi ENE 13.8 mph - N/A   Overcast
9:54 AM 37.0 °F 28.9 °F 28.9 °F 73% 29.96 in 10.0 mi NE 12.7 mph - N/A   Overcast
10:54 AM 39.0 °F 32.3 °F 30.9 °F 73% 29.93 in 10.0 mi ENE 10.4 mph - N/A   Overcast
11:54 AM 41.0 °F 34.3 °F 32.0 °F 70% 29.91 in 10.0 mi ENE 11.5 mph - N/A   Overcast
12:54 PM 42.1 °F 36.6 °F 33.1 °F 70% 29.89 in 10.0 mi ENE 9.2 mph - N/A   Overcast
1:54 PM 41.0 °F 35.8 °F 33.1 °F 73% 29.86 in 10.0 mi ENE 8.1 mph - N/A   Overcast
2:54 PM 41.0 °F 34.7 °F 34.0 °F 76% 29.82 in 10.0 mi ENE 10.4 mph - N/A   Overcast
3:27 PM 39.2 °F 32.5 °F 33.8 °F 81% 29.76 in 10.0 mi ENE 10.4 mph - N/A   Overcast
3:54 PM 39.9 °F 32.9 °F 34.0 °F 79% 29.78 in 10.0 mi ENE 11.5 mph - N/A   Overcast
4:54 PM 39.0 °F 31.0 °F 35.1 °F 86% 29.75 in 7.0 mi East 13.8 mph - N/A   Overcast
5:54 PM 37.9 °F 32.1 °F 35.1 °F 89% 29.75 in 10.0 mi East 8.1 mph - N/A   Overcast
6:54 PM 37.9 °F 30.9 °F 34.0 °F 86% 29.73 in 10.0 mi East 10.4 mph - N/A   Overcast
7:54 PM 37.0 °F 32.4 °F 34.0 °F 89% 29.74 in 10.0 mi East 5.8 mph - N/A   Overcast
8:54 PM 37.0 °F 34.5 °F 34.0 °F 89% 29.78 in 10.0 mi ESE 3.5 mph - N/A   Overcast
9:54 PM 36.0 °F 30.3 °F 35.1 °F 97% 29.75 in 4.0 mi ESE 6.9 mph - N/A   Overcast
10:25 PM 35.6 °F 28.6 °F 35.6 °F 100% 29.70 in 3.0 mi ESE 9.2 mph - N/A   Overcast
10:54 PM 36.0 °F 30.3 °F 35.1 °F 97% 29.73 in 5.0 mi ESE 6.9 mph - N/A   Overcast
11:54 PM 36.0 °F - 35.1 °F 97% 29.78 in 8.0 mi Calm Calm - 0.01 in Rain Light Rain